EA3HRE-13 Weather Reports


time (UTC)temp
C
wind
direction
speed
KPH
gust
KPH
rain 1hr
cm
rain 24hr
cm
rain mn
cm
humidity
%
barometer
mb
20260510113421 22 180 0.0 0.0 0.00 0.00 0.00 100 1013.5
20260510112421 22 219 0.0 0.0 0.00 0.00 0.00 100 1013.5
20260510111421 22 194 0.0 0.0 0.00 0.00 0.00 100 1013.7
20260510110400 22 192 0.0 0.0 0.00 0.00 0.00 100 1013.7
20260510105400 22 193 0.0 0.0 0.00 0.00 0.00 100 1013.8
20260510104400 22 190 0.0 0.0 0.00 0.00 0.00 100 1013.9
20260510103400 21 179 0.0 0.0 0.00 0.00 0.00 100 1014.0
20260510102359 21 149 0.0 0.0 0.00 0.00 0.00 100 1014.1
20260510101329 21 224 0.0 0.0 0.00 0.00 0.00 100 1014.0
20260510100329 21 214 0.0 0.0 0.00 0.00 0.00 100 1014.2
20260510095329 21 204 0.0 0.0 0.00 0.00 0.00 100 1014.3
20260510094329 21 179 0.0 0.0 0.00 0.00 0.00 100 1014.2
20260510093329 20 194 0.0 0.0 0.00 0.00 0.00 100 1014.1
20260510092259 21 188 0.0 0.0 0.00 0.00 0.00 100 1014.0
20260510091259 21 208 0.0 0.0 0.00 0.00 0.00 100 1014.2
20260510090259 21 209 0.0 0.0 0.00 0.00 0.00 100 1014.0
20260510085259 20 204 0.0 0.0 0.00 0.00 0.00 100 1014.2
20260510084229 19 237 0.0 0.0 0.00 0.00 0.00 100 1014.3
20260510083228 18 267 0.0 0.0 0.00 0.00 0.00 100 1014.1
20260510082228 18 215 0.0 0.0 0.00 0.00 0.00 100 1014.4
20260510081228 18 223 0.0 0.0 0.00 0.00 0.00 100 1014.3
20260510080228 18 203 0.0 0.0 0.00 0.00 0.00 100 1014.0
20260510075228 18 210 0.0 0.0 0.00 0.00 0.00 100 1014.1
20260510074158 17 235 0.0 0.0 0.00 0.00 0.00 100 1014.0
20260510073158 17 178 0.0 0.0 0.00 0.00 0.00 100 1013.8
20260510072128 17 37 0.0 0.0 0.00 0.00 0.00 100 1013.9
20260510071128 16 37 0.0 0.0 0.00 0.00 0.00 100 1013.7
20260510070127 16 37 0.0 0.0 0.00 0.00 0.00 100 1013.8
20260510065127 15 37 0.0 0.0 0.00 0.00 0.00 100 1013.7
20260510064127 15 37 0.0 0.0 0.00 0.00 0.00 100 1013.7
20260510063127 14 37 0.0 0.0 0.00 0.00 0.00 100 1013.7
20260510062057 14 37 0.0 0.0 0.00 0.00 0.00 100 1013.7
20260510061057 13 37 0.0 0.0 0.00 0.00 0.00 100 1013.7
20260510060057 13 37 0.0 0.0 0.00 0.00 0.00 100 1013.6
20260510055057 12 37 0.0 0.0 0.00 0.00 0.00 100 1013.6
20260510054057 12 37 0.0 0.0 0.00 0.00 0.00 100 1013.6
20260510053027 12 37 0.0 0.0 0.00 0.00 0.00 100 1013.5
20260510052027 12 37 0.0 0.0 0.00 0.00 0.00 100 1013.6
20260510051026 12 37 0.0 0.0 0.00 0.00 0.00 100 1013.3
20260510045956 12 37 0.0 0.0 0.00 0.00 0.00 100 1013.4
20260510044956 12 37 0.0 0.0 0.00 0.00 0.00 100 1013.4
20260510043956 12 37 0.0 0.0 0.00 0.00 0.00 100 1013.5
20260510042926 12 37 0.0 0.0 0.00 0.00 0.00 100 1013.6
20260510041926 12 37 0.0 0.0 0.00 0.00 0.00 100 1013.5
20260510040926 12 37 0.0 0.0 0.00 0.00 0.00 100 1013.5
20260510035926 12 37 0.0 0.0 0.00 0.00 0.00 100 1013.6
20260510034926 12 37 0.0 0.0 0.00 0.00 0.00 100 1013.4
20260510033925 12 37 0.0 0.0 0.00 0.00 0.00 100 1013.5
20260510032925 12 37 0.0 0.0 0.00 0.00 0.00 100 1013.4
20260510031910 12 37 0.0 0.0 0.00 0.00 0.00 100 1013.4
20260510030855 12 37 0.0 0.0 0.00 0.00 0.00 100 1013.5
20260510025550 12 37 0.0 0.0 0.00 0.00 0.00 100 1013.3
20260510024550 12 37 0.0 0.0 0.00 0.00 0.00 100 1013.5
20260510023550 12 37 0.0 0.0 0.00 0.00 0.00 100 1013.6
20260510022550 12 37 0.0 0.0 0.00 0.00 0.00 100 1013.6
20260510021550 12 37 0.0 0.0 0.00 0.00 0.00 100 1013.7
20260510020520 12 37 0.0 0.0 0.00 0.00 0.00 100 1013.7
20260510015519 12 37 0.0 0.0 0.00 0.00 0.00 100 1013.7
20260510014519 12 37 0.0 0.0 0.00 0.00 0.00 100 1013.6
20260510013519 12 37 0.0 0.0 0.00 0.00 0.00 100 1013.5
20260510012449 12 37 0.0 0.0 0.00 0.00 0.00 100 1013.6
20260510011449 12 37 0.0 0.0 0.00 0.00 0.00 100 1013.7
20260510010419 13 37 0.0 0.0 0.00 0.00 0.00 100 1013.6
20260510005419 13 37 0.0 0.0 0.00 0.00 0.00 100 1013.5
20260510004419 13 37 0.0 0.0 0.00 0.00 0.00 100 1013.5
20260510003349 13 37 0.0 0.0 0.00 0.00 0.00 100 1013.5
20260510002349 13 37 0.0 0.0 0.00 0.00 0.00 100 1013.5
20260510001348 13 37 0.0 0.0 0.00 0.00 0.00 100 1013.5
20260510000349 13 37 0.0 0.0 0.00 0.00 0.00 100 1013.6
20260509235348 13 37 0.0 0.0 0.00 0.00 0.00 100 1013.7
20260509234318 13 37 0.0 0.0 0.00 0.00 0.00 100 1013.7
20260509233318 14 37 0.0 0.0 0.00 0.00 0.00 100 1013.7
20260509232318 13 37 0.0 1.6 0.00 0.00 0.00 100 1013.9
20260509231318 14 37 0.0 0.0 0.00 0.00 0.00 100 1014.3
20260509230318 14 37 0.0 1.6 0.00 0.00 0.00 100 1014.1
20260509225318 14 37 0.0 0.0 0.00 0.00 0.00 100 1014.3
20260509224317 14 37 0.0 0.0 0.00 0.00 0.00 100 1014.4
20260509223317 14 37 0.0 0.0 0.00 0.00 0.00 100 1014.4
20260509222317 14 37 0.0 0.0 0.00 0.00 0.00 100 1014.3
20260509221317 14 37 0.0 0.0 0.00 0.00 0.00 100 1014.2
20260509220317 14 37 0.0 0.0 0.00 0.00 0.00 100 1014.1
20260509215247 14 37 0.0 0.0 0.00 0.00 0.00 100 1014.0
20260509214247 14 37 0.0 0.0 0.00 0.00 0.00 100 1014.0
20260509213247 14 37 0.0 0.0 0.00 0.00 0.00 100 1013.9
20260509212247 14 37 0.0 0.0 0.00 0.00 0.00 100 1013.7
20260509211246 15 37 0.0 0.0 0.00 0.00 0.00 100 1013.5
20260509210246 15 37 0.0 1.6 0.00 0.00 0.00 100 1013.7
20260509205246 15 37 0.0 0.0 0.00 0.00 0.00 100 1013.6
20260509204246 15 37 0.0 0.0 0.00 0.00 0.00 100 1013.7
20260509203246 15 37 0.0 0.0 0.00 0.00 0.00 100 1013.7
20260509202246 15 37 0.0 0.0 0.00 0.00 0.00 100 1013.5
20260509201246 15 42 0.0 0.0 0.00 0.00 0.00 100 1013.3
20260509200246 15 42 0.0 0.0 0.00 0.00 0.00 100 1013.0
20260509195246 15 42 0.0 0.0 0.00 0.00 0.00 100 1012.8
20260509194245 15 42 0.0 0.0 0.00 0.00 0.00 100 1012.5
20260509193245 15 42 0.0 0.0 0.00 0.00 0.00 100 1012.4
20260509192245 15 42 0.0 0.0 0.00 0.00 0.00 100 1012.2
20260509191245 15 42 0.0 0.0 0.00 0.00 0.00 100 1011.8
20260509190245 15 42 0.0 0.0 0.00 0.00 0.00 100 1011.8
20260509185215 16 42 0.0 0.0 0.00 0.00 0.00 100 1011.7
20260509184215 16 42 0.0 0.0 0.00 0.00 0.00 100 1011.7
20260509183215 16 25 0.0 0.0 0.00 0.00 0.00 100 1011.5
20260509182145 16 25 0.0 0.0 0.00 0.00 0.00 100 1011.5
20260509181145 16 25 0.0 0.0 0.00 0.00 0.00 100 1011.4
20260509180145 16 25 0.0 0.0 0.00 0.00 0.00 100 1011.4
20260509175145 16 25 0.0 0.0 0.00 0.00 0.00 100 1011.1
20260509174145 15 25 0.0 0.0 0.00 0.00 0.00 100 1010.8
20260509173145 15 26 0.0 0.0 0.00 0.00 0.00 100 1010.5
20260509172115 15 26 0.0 0.0 0.00 0.00 0.00 100 1010.1
20260509171044 15 24 0.0 0.0 0.00 0.00 0.00 100 1010.3
20260509170044 15 15 0.0 0.0 0.00 0.00 0.00 100 1010.6
20260509165044 15 27 0.0 0.0 0.00 0.00 0.00 100 1011.0
20260509164014 15 35 0.0 0.0 0.00 0.00 0.00 100 1011.3
20260509163014 15 25 0.0 0.0 0.00 0.00 0.00 100 1011.4
20260509161946 15 0 0.0 0.0 0.00 0.00 0.00 100 1011.7
20260509160944 15 5 0.0 0.0 0.00 0.00 0.00 100 1011.8
20260509155944 15 7 0.0 0.0 0.00 0.00 0.00 100 1012.0
20260509154914 16 0 0.0 0.0 0.00 0.00 0.00 100 1012.6
20260509153914 16 0 0.0 0.0 0.00 0.00 0.00 100 1012.8
20260509152914 16 74 0.0 0.0 0.00 0.00 0.00 100 1013.0
20260509151914 16 182 0.0 0.0 0.00 0.00 0.00 100 1013.4
20260509150844 16 182 0.0 0.0 0.00 0.00 0.00 100 1013.6
20260509145843 16 180 0.0 0.0 0.00 0.00 0.00 100 1013.6
20260509144843 22 167 0.0 0.0 0.00 0.00 0.00 100 1026.2
20260509143843 20 10 0.0 0.0 0.00 0.00 0.00 100 1024.7
20260509142813 16 9 0.0 0.0 0.00 0.00 0.00 100 1011.4
20260509141813 16 0 0.0 0.0 0.00 0.00 0.00 100 1011.2
20260509140813 17 26 0.0 0.0 0.00 0.00 0.00 100 1010.8
20260509135813 17 3 0.0 0.0 0.00 0.00 0.00 100 1010.6
20260509134743 17 24 0.0 0.0 0.00 0.00 0.00 100 1010.8
20260509133743 17 52 4.8 12.9 0.00 0.00 0.00 100 1011.3
20260509132743 17 66 4.8 4.8 0.00 0.00 0.00 100 1011.8
20260509131743 17 63 0.0 4.8 0.00 0.00 0.00 100 1012.3
20260509130743 17 54 1.6 4.8 0.00 0.00 0.00 100 1012.6
20260509125742 18 65 0.0 0.0 0.00 0.00 0.00 100 1012.9
20260509124712 18 35 4.8 8.0 0.00 0.00 0.00 100 1012.8
20260509123712 18 68 0.0 1.6 0.00 0.00 0.00 100 1012.6
20260509122712 19 76 4.8 8.0 0.00 0.00 0.00 100 1012.1
20260509121712 19 65 0.0 6.4 0.00 0.00 0.00 100 1012.0
20260509120712 20 47 4.8 12.9 0.00 0.00 0.00 100 1011.6
20260509115712 20 34 8.0 8.0 0.00 0.00 0.00 100 1011.7
20260509114712 20 60 4.8 11.3 0.00 0.00 0.00 100 1012.2